{"data":{"norad_id":62053,"intl_designator":"2024-216X","name":"STARLINK-32494","alt_names":[],"object_type":"PAYLOAD","status":"ACTIVE","operator":null,"country":"US","launch_date":"2024-11-21","launch_site_code":"AFETR","launch_vehicle":null,"mission":null,"orbit_class":"UNKNOWN","rcs_meters":null,"size_class":null,"mass_kg":null,"dimensions":null,"purposes":["comms"],"wikipedia_slug":null,"has_3d_model":false,"image_url":null,"decayed_at":null,"tle_current":{"epoch":"2026-09-21T07:45:27.345024Z","epoch_age_seconds":110062,"freshness":"FRESH","line1":"1 62053U 24216X   26264.32323316  .00010086  00000+0  37542-3 0  9992","line2":"2 62053  43.0019 238.5510 0001623 280.2232  79.8436 15.27590761103712","mean_motion":15.27590761,"eccentricity":0.0001623,"inclination_deg":43.0019,"raan_deg":238.551,"arg_perigee_deg":280.2232,"mean_anomaly_deg":79.8436,"bstar":0.00037542,"rev_number":10371,"period_min":94.266084658521,"perigee_km":481.90330864982,"apogee_km":484.1304391973,"semimajor_km":6861.1538739236,"source":"CELESTRAK","updated_at":"2026-09-22T09:00:49.490672Z"}}}